sat.trackr.live / text

‹ back to catalog

STARLINK-33818

NORAD 63502 · 2025-071K

PAYLOAD ACTIVE UNKNOWN

§ Identity

Operator
Country
US
Launch date
2025-04-07
Launch site
AFWTR
Launch vehicle
Mass (kg)
RCS (m²)

Purposes: comms

External: N2YO · Heavens-Above · Gunter

§ Orbital elements

Epoch: 2026-05-24T17:27:17.945856Z

Period
94.11 min
Inclination
53.1590°
Eccentricity
0.0001242
Mean motion
15.30197529 rev/d
Perigee alt
474.4 km
Apogee alt
476.1 km
Semi-major
6,853.4 km
B*
4.7312e-4
RAAN
146.5888°
Arg perigee
89.5192°
Mean anomaly
270.5951°
Rev number
6,441

§ Raw data

STARLINK-338181 63502U 25071K   26144.72729104  .00013678  00000+0  47312-3 0  99942 63502  53.1590 146.5888 0001242  89.5192 270.5951 15.30197529 64410

JSON: /api/v1/satellites/63502 · /tle

For live sub-satellite position, see the globe view (requires WebGL).

§ Visibility from observer

Set your observer location to see the next 7 days of passes ≥ 10°. The values pass through the URL so the page stays shareable.

No JS? Fill the form by hand. The geolocation button needs JavaScript.